period_start,C,m1,H,J0,J1,J2,J3,J4,J5,JA,JB,JC,JD,JJ,JK,JN,#
2017-02-16 00:01:18,0.45,0.97,0.00,20.08,23.54,27.27,14.74,48.96,1019.72,2044.98,3113.99,2843.27,3248.55,600.26,604.06,2.27,0000 0000 0000 0000 000000
2017-02-16 00:06:19,0.44,1.00,0.00,20.08,23.55,27.28,14.71,49.05,1019.72,2044.99,3105.79,2837.10,3241.42,599.94,603.74,2.32,0000 0000 0000 0000 000000
2017-02-16 00:11:21,0.46,1.02,0.00,20.09,23.56,27.35,14.76,49.13,1019.95,2044.97,3097.40,2830.79,3234.08,600.16,604.13,2.37,0000 0000 0000 0000 000000
2017-02-16 00:16:22,0.44,1.04,0.00,20.08,23.57,27.29,14.72,48.97,1020.02,2044.95,3089.30,2824.62,3226.94,600.14,604.16,2.42,0000 0000 0000 0000 000000
2017-02-16 00:21:24,0.43,1.06,0.00,20.05,23.57,27.25,14.75,49.05,1020.03,2044.92,3081.28,2818.56,3219.85,599.88,603.97,2.47,0000 0000 0000 0000 000000
2017-02-16 00:26:25,0.43,1.09,0.00,20.03,23.57,27.26,14.76,48.98,1020.05,2044.83,3073.27,2812.58,3212.80,600.28,604.46,2.52,0000 0000 0000 0000 000000
2017-02-16 00:31:26,0.42,1.11,0.00,20.02,23.59,27.24,14.79,48.92,1020.06,2044.54,3065.00,2806.24,3205.36,600.01,604.15,2.57,0000 0000 0000 0000 000000
2017-02-16 00:36:28,0.43,1.13,0.00,20.02,23.60,27.31,14.71,48.77,1020.35,2044.28,3056.83,2800.10,3198.29,599.89,604.20,2.62,0000 0000 0000 0000 000000
2017-02-16 00:41:30,0.44,1.15,0.00,20.02,23.60,27.28,14.74,48.80,1020.51,2044.13,3048.73,2793.95,3191.26,600.38,604.80,2.67,0000 0000 0000 0000 000000
2017-02-16 00:46:30,0.45,1.17,0.00,20.03,23.60,27.35,14.82,48.64,1020.52,2044.12,3040.71,2787.89,3184.18,600.13,604.51,2.72,0000 0000 0000 0000 000000
2017-02-16 00:51:32,0.45,1.20,0.00,20.04,23.60,27.29,14.77,48.64,1020.52,2044.06,3032.51,2781.69,3177.02,600.42,604.75,2.77,0000 0000 0000 0000 000000
2017-02-16 00:56:33,0.46,1.22,0.00,20.05,23.60,27.27,14.73,48.87,1020.47,2044.06,3024.39,2775.50,3169.84,599.93,604.23,2.82,0000 0000 0000 0000 000000
2017-02-16 01:01:34,0.48,1.24,0.00,20.06,23.60,27.21,14.75,48.99,1020.34,2044.03,3016.03,2769.07,3162.34,599.97,604.15,2.87,0000 0000 0000 0000 000000
2017-02-16 01:06:35,0.46,1.27,0.00,20.09,23.60,27.21,14.77,49.02,1020.34,2044.03,3007.88,2762.75,3155.07,600.26,604.42,2.92,0000 0000 0000 0000 000000
2017-02-16 01:11:36,0.46,1.29,0.00,20.10,23.61,27.22,14.82,48.98,1020.30,2044.03,2999.97,2756.57,3147.92,600.26,604.29,2.97,0000 0000 0000 0000 000000
2017-02-16 01:16:38,0.46,1.31,0.00,20.10,23.62,27.23,14.70,48.88,1020.11,2044.01,2991.82,2750.45,3140.67,599.91,603.91,3.02,0000 0000 0000 0000 000000
2017-02-16 01:21:39,0.47,1.34,0.00,20.11,23.62,27.24,14.69,49.03,1020.16,2044.00,2983.60,2744.19,3133.45,600.03,604.11,3.07,0000 0000 0000 0000 000000
2017-02-16 01:26:40,0.47,1.36,0.00,20.11,23.62,27.23,14.68,48.94,1020.40,2044.00,2975.48,2738.01,3126.31,600.00,604.05,3.12,0000 0000 0000 0000 000000
2017-02-16 01:31:41,0.46,1.39,0.00,20.11,23.62,27.29,14.66,48.91,1020.48,2044.00,2967.44,2731.91,3119.19,599.82,604.11,3.17,0000 0000 0000 0000 000000
2017-02-16 01:36:42,0.46,1.41,0.00,20.13,23.62,27.23,14.79,48.95,1020.51,2044.00,2959.37,2725.79,3112.08,600.06,604.21,3.22,0000 0000 0000 0000 000000
2017-02-16 01:41:43,0.48,1.44,0.00,20.15,23.64,27.28,14.77,49.17,1020.40,2044.00,2951.27,2719.59,3104.92,600.09,604.16,3.27,0000 0000 0000 0000 000000
2017-02-16 01:46:45,0.48,1.46,0.00,20.17,23.64,27.26,14.70,49.00,1020.18,2043.99,2943.15,2713.32,3097.57,599.56,603.48,3.32,0000 0000 0000 0000 000000
2017-02-16 01:51:46,0.49,1.49,0.00,20.16,23.65,27.28,14.77,49.00,1020.20,2043.99,2935.01,2707.03,3090.25,600.17,604.07,3.37,0000 0000 0000 0000 000000
2017-02-16 01:56:47,0.49,1.51,0.00,20.16,23.65,27.30,14.74,49.06,1020.31,2043.98,2926.77,2700.69,3082.85,599.71,603.66,3.42,0000 0000 0000 0000 000000
2017-02-16 02:01:48,0.49,1.53,0.00,20.17,23.65,27.28,14.72,49.19,1020.31,2043.98,2918.49,2694.33,3075.49,600.21,604.19,3.47,0000 0000 0000 0000 000000
2017-02-16 02:06:50,0.49,1.56,0.00,20.18,23.66,27.32,14.77,49.10,1020.24,2043.98,2910.33,2688.09,3068.27,600.31,604.18,3.52,0000 0000 0000 0000 000000
2017-02-16 02:11:51,0.51,1.58,0.00,20.19,23.67,27.32,14.72,49.17,1020.09,2043.97,2902.10,2681.65,3060.75,599.90,603.67,3.57,0000 0000 0000 0000 000000
2017-02-16 02:16:52,0.49,1.61,0.00,20.19,23.67,27.33,14.79,49.29,1020.07,2043.99,2893.90,2675.22,3053.33,600.04,603.82,3.62,0000 0000 0000 0000 000000
2017-02-16 02:21:54,0.48,1.63,0.00,20.18,23.67,27.36,14.73,49.22,1020.06,2043.88,2885.81,2668.89,3046.01,600.24,604.03,3.67,0000 0000 0000 0000 000000
2017-02-16 02:26:55,0.44,1.66,0.00,20.19,23.67,27.34,14.72,49.17,1020.09,2043.68,2878.19,2662.95,3039.08,599.93,603.74,3.72,0000 0000 0000 0000 000000
2017-02-16 02:31:56,0.45,1.68,0.00,20.20,23.67,27.33,14.71,49.27,1020.05,2043.63,2870.67,2657.26,3032.39,600.09,603.78,3.77,0000 0000 0000 0000 000000
2017-02-16 02:36:57,0.43,1.70,0.00,20.22,23.69,27.37,14.77,49.06,1020.05,2043.30,2863.07,2651.43,3025.64,600.38,604.19,3.82,0000 0000 0000 0000 000000
2017-02-16 02:41:58,0.44,1.72,0.00,20.21,23.69,27.32,14.78,49.13,1020.05,2043.13,2855.67,2645.77,3019.09,600.06,603.80,3.88,0000 0000 0000 0000 000000
2017-02-16 02:46:59,0.45,1.75,0.00,20.20,23.69,27.30,14.68,49.17,1020.05,2043.18,2848.35,2640.21,3012.62,599.84,603.61,3.93,0000 0000 0000 0000 000000
2017-02-16 02:52:01,0.45,1.77,0.00,20.19,23.70,27.33,14.73,49.18,1020.05,2043.13,2840.89,2634.53,3006.09,599.96,603.83,3.98,0000 0000 0000 0000 000000
2017-02-16 02:57:02,0.44,1.79,0.00,20.19,23.70,27.30,14.72,49.16,1020.07,2043.06,2833.51,2628.90,2999.61,600.03,603.74,4.03,0000 0000 0000 0000 000000
2017-02-16 03:02:03,0.45,1.81,0.00,20.19,23.70,27.33,14.67,49.09,1020.16,2043.03,2826.18,2623.41,2993.16,599.85,603.69,4.08,0000 0000 0000 0000 000000
2017-02-16 03:07:04,0.44,1.84,0.00,20.20,23.70,27.32,14.72,49.21,1020.16,2043.07,2819.01,2618.06,2986.83,599.82,603.71,4.13,0000 0000 0000 0000 000000
2017-02-16 03:12:05,0.43,1.86,0.00,20.22,23.70,27.30,14.76,49.00,1020.07,2043.02,2812.04,2612.68,2980.54,600.28,604.03,4.18,0000 0000 0000 0000 000000
2017-02-16 03:17:07,0.44,1.88,0.00,20.22,23.70,27.29,14.76,49.12,1020.07,2043.02,2805.01,2607.36,2974.35,599.83,603.44,4.23,0000 0000 0000 0000 000000
2017-02-16 03:22:08,0.43,1.90,0.00,20.22,23.70,27.29,14.66,49.12,1020.04,2043.01,2798.12,2602.12,2968.27,599.71,603.42,4.28,0000 0000 0000 0000 000000
2017-02-16 03:27:09,0.43,1.93,0.00,20.22,23.70,27.35,14.77,49.19,1020.04,2043.02,2791.24,2596.82,2962.17,599.96,603.66,4.33,0000 0000 0000 0000 000000
2017-02-16 03:32:10,0.43,1.95,0.00,20.24,23.70,27.32,14.72,49.25,1020.04,2043.01,2784.38,2591.54,2956.06,599.94,603.58,4.38,0000 0000 0000 0000 000000
2017-02-16 03:37:12,0.43,1.97,0.00,20.23,23.70,27.33,14.78,49.18,1020.04,2043.01,2777.54,2586.33,2949.98,600.24,603.92,4.43,0000 0000 0000 0000 000000
2017-02-16 03:42:13,0.43,1.99,0.00,20.26,23.71,27.30,14.72,49.09,1020.03,2043.00,2770.79,2581.16,2944.03,599.97,603.58,4.48,0000 0000 0000 0000 000000
2017-02-16 03:47:14,0.43,2.01,0.00,20.26,23.72,27.31,14.73,49.20,1020.02,2043.00,2764.11,2576.08,2938.21,599.98,603.69,4.53,0000 0000 0000 0000 000000
2017-02-16 03:52:16,0.43,2.03,0.00,20.26,23.72,27.36,14.71,49.36,1019.89,2043.00,2757.44,2570.96,2932.30,599.92,603.43,4.58,0000 0000 0000 0000 000000
2017-02-16 03:57:17,0.43,2.06,0.00,20.28,23.72,27.36,14.77,49.26,1019.99,2043.00,2750.80,2565.82,2926.27,599.91,603.51,4.63,0000 0000 0000 0000 000000
2017-02-16 04:02:18,0.43,2.08,0.00,20.29,23.72,27.39,14.78,49.21,1020.02,2043.00,2744.13,2560.67,2920.23,600.07,603.62,4.68,0000 0000 0000 0000 000000
2017-02-16 04:07:19,0.42,2.10,0.00,20.32,23.73,27.39,14.72,49.23,1020.02,2043.00,2737.54,2555.77,2914.37,599.99,603.47,4.73,0000 0000 0000 0000 000000
2017-02-16 04:12:20,0.42,2.12,0.00,20.33,23.74,27.37,14.68,49.18,1020.03,2043.00,2731.09,2550.87,2908.63,599.94,603.58,4.78,0000 0000 0000 0000 000000
2017-02-16 04:17:22,0.42,2.14,0.00,20.34,23.75,27.41,14.75,49.08,1020.03,2043.00,2724.66,2545.94,2902.88,600.12,603.62,4.83,0000 0000 0000 0000 000000
2017-02-16 04:22:23,0.42,2.16,0.00,20.35,23.75,27.42,14.71,49.11,1020.03,2043.00,2718.26,2541.03,2897.19,600.29,603.71,4.88,0000 0000 0000 0000 000000
2017-02-16 04:27:24,0.42,2.18,0.00,20.37,23.76,27.48,14.73,49.13,1020.04,2042.99,2711.82,2536.10,2891.46,599.92,603.33,4.93,0000 0000 0000 0000 000000
2017-02-16 04:32:25,0.43,2.21,0.00,20.38,23.77,27.46,14.68,49.14,1020.04,2042.99,2705.29,2531.09,2885.67,599.98,603.53,4.98,0000 0000 0000 0000 000000
2017-02-16 04:37:26,0.42,2.23,0.00,20.39,23.77,27.54,14.74,49.18,1020.06,2042.96,2698.93,2526.18,2879.99,600.09,603.53,5.03,0000 0000 0000 0000 000000
2017-02-16 04:42:27,0.42,2.25,0.00,20.41,23.79,27.52,14.67,49.21,1020.04,2042.90,2692.50,2521.19,2874.37,599.76,603.07,5.08,0000 0000 0000 0000 000000
2017-02-16 04:47:29,0.41,2.27,0.00,20.44,23.80,27.55,14.69,49.22,1020.04,2042.78,2686.23,2516.31,2868.70,600.20,603.46,5.13,0000 0000 0000 0000 000000
2017-02-16 04:52:30,0.37,2.29,0.00,20.46,23.81,27.53,14.70,49.28,1019.99,2042.33,2679.94,2511.43,2863.03,599.96,603.18,5.18,0000 0000 0000 0000 000000
2017-02-16 04:57:31,0.41,2.31,0.00,20.48,23.82,27.54,14.67,49.26,1019.79,2042.09,2673.68,2506.56,2857.38,599.86,602.78,5.23,0000 0000 0000 0000 000000
2017-02-16 05:02:33,0.42,2.33,0.00,20.49,23.83,27.60,14.65,49.29,1019.59,2042.03,2667.46,2501.78,2851.86,599.95,602.86,5.28,0000 0000 0000 0000 000000
2017-02-16 05:07:34,0.42,2.35,0.00,20.49,23.85,27.59,14.72,49.31,1019.55,2042.02,2661.27,2497.05,2846.30,600.01,602.84,5.33,0000 0000 0000 0000 000000
2017-02-16 05:12:35,0.41,2.37,0.00,20.49,23.86,27.63,14.70,49.17,1019.57,2042.01,2655.10,2492.45,2840.81,600.28,603.06,5.38,0000 0000 0000 0000 000000
2017-02-16 05:17:37,0.42,2.39,0.00,20.50,23.87,27.64,14.71,49.21,1019.59,2042.01,2648.90,2487.71,2835.28,599.72,602.72,5.43,0000 0000 0000 0000 000000
2017-02-16 05:22:37,0.40,2.42,0.00,20.52,23.88,27.67,14.68,49.21,1019.69,2042.01,2642.95,2483.15,2829.99,599.93,602.81,5.48,0000 0000 0000 0000 000000
2017-02-16 05:27:39,0.41,2.44,0.00,20.53,23.90,27.65,14.65,49.10,1019.81,2042.00,2637.03,2478.56,2824.68,599.75,602.67,5.53,0000 0000 0000 0000 000000
2017-02-16 05:32:40,0.40,2.46,0.00,20.53,23.91,27.67,14.69,49.23,1019.76,2042.00,2631.14,2474.02,2819.40,599.90,602.85,5.58,0000 0000 0000 0000 000000
2017-02-16 05:37:42,0.40,2.48,0.00,20.56,23.92,27.67,14.81,49.26,1019.74,2041.99,2625.29,2469.54,2814.22,600.03,602.94,5.63,0000 0000 0000 0000 000000
2017-02-16 05:42:43,0.40,2.50,0.00,20.59,23.93,27.68,14.69,49.19,1019.92,2041.99,2619.62,2464.99,2809.04,599.93,602.82,5.68,0000 0000 0000 0000 000000
2017-02-16 05:47:44,0.41,2.52,0.00,20.59,23.95,27.70,14.73,49.12,1019.93,2041.97,2613.92,2460.52,2803.90,599.98,602.87,5.73,0000 0000 0000 0000 000000
2017-02-16 05:52:46,0.39,2.54,0.00,20.60,23.96,27.75,14.69,49.13,1019.88,2041.93,2608.27,2456.11,2798.82,600.03,602.81,5.78,0000 0000 0000 0000 000000
2017-02-16 05:57:47,0.38,2.56,0.00,20.62,23.97,27.79,14.70,49.08,1019.78,2041.75,2602.50,2451.52,2793.63,599.97,602.85,5.83,0000 0000 0000 0000 000000
2017-02-16 06:02:48,0.39,2.58,0.00,20.63,23.99,27.79,14.68,49.22,1019.75,2041.65,2596.86,2447.15,2788.58,599.73,602.48,5.88,0000 0000 0000 0000 000000
2017-02-16 06:07:49,0.36,2.59,0.00,20.64,24.00,27.83,14.72,49.18,1019.91,2041.47,2591.32,2442.83,2783.58,599.94,602.76,5.93,0000 0000 0000 0000 000000
2017-02-16 06:12:51,0.37,2.61,0.00,20.64,24.02,27.85,14.71,49.25,1019.79,2041.13,2585.68,2438.45,2778.52,599.97,602.58,5.98,0000 0000 0000 0000 000000
2017-02-16 06:17:52,0.39,2.63,0.00,20.63,24.03,27.82,14.75,49.26,1020.00,2041.03,2580.12,2434.15,2773.49,600.13,602.98,6.03,0000 0000 0000 0000 000000
2017-02-16 06:22:54,0.39,2.65,0.00,20.66,24.05,27.85,14.67,49.32,1020.00,2041.02,2574.60,2429.97,2768.55,599.87,602.65,6.08,0000 0000 0000 0000 000000
2017-02-16 06:27:55,0.37,2.67,0.00,20.66,24.06,27.82,14.73,49.29,1020.01,2041.01,2569.23,2425.82,2763.70,600.01,602.76,6.13,0000 0000 0000 0000 000000
2017-02-16 06:32:56,0.38,2.69,0.00,20.65,24.07,27.82,14.63,49.20,1020.03,2041.00,2563.92,2421.70,2758.91,600.01,602.71,6.18,0000 0000 0000 0000 000000
2017-02-16 06:37:57,0.38,2.71,0.00,20.67,24.08,27.86,14.70,49.17,1019.87,2041.00,2558.73,2417.58,2754.14,599.98,602.69,6.23,0000 0000 0000 0000 000000
2017-02-16 06:42:58,0.38,2.73,0.00,20.67,24.10,27.85,14.73,49.23,1019.72,2041.00,2553.49,2413.47,2749.53,600.20,602.76,6.29,0000 0000 0000 0000 000000
2017-02-16 06:47:59,0.40,2.75,0.00,20.68,24.10,27.86,14.73,49.23,1019.57,2040.99,2548.04,2409.22,2744.62,600.09,602.52,6.34,0000 0000 0000 0000 000000
2017-02-16 06:53:01,0.39,2.77,0.00,20.69,24.12,27.83,14.69,49.25,1019.57,2040.99,2542.69,2405.07,2739.82,600.00,602.59,6.39,0000 0000 0000 0000 000000
2017-02-16 06:58:02,0.39,2.79,0.00,20.69,24.12,27.85,14.68,49.11,1019.61,2040.99,2537.33,2400.96,2735.11,599.75,602.24,6.44,0000 0000 0000 0000 000000
2017-02-16 07:03:03,0.39,2.81,0.00,20.69,24.14,27.88,14.66,49.17,1019.58,2040.98,2531.95,2396.78,2730.28,599.84,602.22,6.49,0000 0000 0000 0000 000000
2017-02-16 07:08:04,0.39,2.83,0.00,20.71,24.15,27.90,14.73,49.27,1019.55,2040.97,2526.67,2392.62,2725.55,600.20,602.75,6.54,0000 0000 0000 0000 000000
2017-02-16 07:13:05,0.38,2.85,0.00,20.70,24.16,27.89,14.71,49.37,1019.55,2040.92,2521.30,2388.41,2720.74,599.73,602.11,6.59,0000 0000 0000 0000 000000
2017-02-16 07:18:07,0.39,2.87,0.00,20.69,24.17,27.93,14.72,49.28,1019.57,2040.90,2516.01,2384.31,2716.00,600.02,602.49,6.64,0000 0000 0000 0000 000000
2017-02-16 07:23:08,0.39,2.89,0.00,20.70,24.17,27.89,14.65,49.17,1019.57,2040.76,2510.60,2380.12,2711.14,600.06,602.50,6.69,0000 0000 0000 0000 000000
2017-02-16 07:28:09,0.37,2.91,0.00,20.71,24.19,27.86,14.73,49.31,1019.60,2040.39,2505.08,2375.84,2706.18,600.20,602.61,6.74,0000 0000 0000 0000 000000
2017-02-16 07:33:10,0.40,2.93,0.00,20.69,24.20,27.89,14.64,49.34,1019.58,2040.25,2499.42,2371.48,2701.16,599.81,602.26,6.79,0000 0000 0000 0000 000000
2017-02-16 07:38:11,0.40,2.95,0.00,20.72,24.20,27.95,14.77,49.35,1019.57,2040.13,2493.94,2367.19,2696.07,599.97,602.36,6.84,0000 0000 0000 0000 000000
2017-02-16 07:43:13,0.42,2.97,0.00,20.72,24.21,27.91,14.70,49.36,1019.55,2040.12,2488.32,2362.89,2690.98,600.04,602.44,6.89,0000 0000 0000 0000 000000
2017-02-16 07:48:14,0.43,2.99,0.00,20.71,24.22,27.92,14.74,49.37,1019.56,2040.04,2482.45,2358.35,2685.80,600.08,602.58,6.94,0000 0000 0000 0000 000000
2017-02-16 07:53:15,0.44,3.01,0.00,20.72,24.22,27.90,14.61,49.52,1019.55,2040.01,2476.64,2353.82,2680.54,599.86,602.23,6.99,0000 0000 0000 0000 000000
2017-02-16 07:58:16,0.44,3.03,0.00,20.73,24.23,27.85,14.66,49.42,1019.55,2040.01,2470.75,2349.21,2675.19,599.95,602.24,7.04,0000 0000 0000 0000 000000
2017-02-16 08:03:17,0.46,3.06,0.00,20.75,24.24,27.86,14.71,49.35,1019.58,2040.01,2464.71,2344.51,2669.76,599.98,602.34,7.09,0000 0000 0000 0000 000000
2017-02-16 08:08:19,0.47,3.08,0.00,20.75,24.25,27.87,14.62,49.27,1019.66,2040.00,2458.69,2339.83,2664.34,600.02,602.44,7.14,0000 0000 0000 0000 000000
2017-02-16 08:13:20,0.45,3.10,0.00,20.75,24.25,27.89,14.72,49.35,1019.58,2040.00,2452.69,2335.21,2659.01,600.19,602.51,7.19,0000 0000 0000 0000 000000
2017-02-16 08:18:21,0.46,3.13,0.00,20.76,24.26,27.89,14.68,49.33,1019.68,2040.00,2446.70,2330.57,2653.57,599.87,602.26,7.24,0000 0000 0000 0000 000000
2017-02-16 08:23:23,0.47,3.15,0.00,20.78,24.27,27.92,14.76,49.36,1019.61,2040.00,2440.65,2325.84,2648.13,600.28,602.58,7.29,0000 0000 0000 0000 000000
2017-02-16 08:28:24,0.46,3.17,0.00,20.78,24.27,27.95,14.69,49.31,1019.58,2040.00,2434.62,2321.18,2642.64,600.14,602.41,7.34,0000 0000 0000 0000 000000
2017-02-16 08:33:25,0.45,3.20,0.00,20.78,24.28,27.98,14.74,49.42,1019.55,2039.99,2428.76,2316.55,2637.31,600.06,602.29,7.39,0000 0000 0000 0000 000000
2017-02-16 08:38:27,0.45,3.22,0.00,20.81,24.30,27.97,14.65,49.53,1019.56,2039.99,2422.93,2311.96,2631.98,600.07,602.18,7.44,0000 0000 0000 0000 000000
2017-02-16 08:43:28,0.46,3.24,0.00,20.80,24.30,28.00,14.73,49.53,1019.55,2039.99,2417.04,2307.34,2626.60,600.28,602.53,7.49,0000 0000 0000 0000 000000
2017-02-16 08:48:30,0.48,3.27,0.00,20.81,24.31,28.02,14.62,49.48,1019.55,2039.99,2411.02,2302.54,2621.13,599.89,602.08,7.54,0000 0000 0000 0000 000000
2017-02-16 08:53:31,0.47,3.29,0.00,20.83,24.32,28.06,14.68,49.52,1019.51,2039.99,2405.07,2297.95,2615.72,599.87,601.91,7.59,0000 0000 0000 0000 000000
2017-02-16 08:58:32,0.46,3.31,0.00,20.82,24.32,28.02,14.73,49.49,1019.38,2039.98,2399.13,2293.34,2610.38,599.89,601.98,7.64,0000 0000 0000 0000 000000
2017-02-16 09:03:33,0.44,3.34,0.00,20.82,24.35,28.04,14.70,49.40,1019.38,2039.98,2393.41,2288.92,2605.26,599.83,601.86,7.69,0000 0000 0000 0000 000000
2017-02-16 09:08:34,0.43,3.36,0.00,20.83,24.35,28.05,14.61,49.48,1019.15,2039.95,2388.05,2284.79,2600.43,599.69,601.61,7.74,0000 0000 0000 0000 000000
2017-02-16 09:13:36,0.44,3.38,0.00,20.85,24.35,28.05,14.67,49.50,1019.13,2039.94,2382.62,2280.53,2595.53,600.04,601.92,7.79,0000 0000 0000 0000 000000
2017-02-16 09:18:37,0.43,3.40,0.00,20.83,24.37,28.05,14.69,49.58,1019.13,2039.73,2376.94,2276.04,2590.28,600.12,601.95,7.84,0000 0000 0000 0000 000000
2017-02-16 09:23:38,0.42,3.43,0.00,20.84,24.37,28.09,14.76,49.67,1019.22,2039.38,2371.25,2271.58,2585.14,600.38,602.19,7.89,0000 0000 0000 0000 000000
2017-02-16 09:28:39,0.43,3.45,0.00,20.84,24.38,28.09,14.63,49.73,1019.12,2039.32,2365.98,2267.38,2580.22,599.95,601.76,7.94,0000 0000 0000 0000 000000
2017-02-16 09:33:41,0.43,3.47,0.00,20.84,24.40,28.07,14.78,49.78,1019.06,2039.15,2360.49,2263.03,2575.13,600.25,602.10,7.99,0000 0000 0000 0000 000000
2017-02-16 09:38:42,0.45,3.49,0.00,20.85,24.40,28.07,14.69,49.78,1019.14,2039.06,2354.89,2258.64,2570.00,600.15,602.04,8.04,0000 0000 0000 0000 000000
2017-02-16 09:43:43,0.47,3.51,0.00,20.84,24.41,28.10,14.78,49.80,1019.28,2039.04,2349.14,2254.15,2564.83,599.88,601.79,8.09,0000 0000 0000 0000 000000
2017-02-16 09:48:44,0.47,3.54,0.00,20.84,24.42,28.06,14.68,49.74,1019.12,2039.03,2343.40,2249.62,2559.66,600.03,601.90,8.14,0000 0000 0000 0000 000000
2017-02-16 09:53:45,0.47,3.56,0.00,20.87,24.42,28.09,14.59,49.68,1019.27,2039.02,2337.70,2245.18,2554.61,600.09,602.09,8.19,0000 0000 0000 0000 000000
2017-02-16 09:58:47,0.48,3.59,0.00,20.85,24.42,28.13,14.66,49.68,1019.17,2039.01,2331.82,2240.62,2549.27,599.77,601.84,8.24,0000 0000 0000 0000 000000
2017-02-16 10:03:48,0.49,3.61,0.00,20.86,24.44,28.06,14.69,49.66,1019.15,2039.00,2325.92,2236.12,2543.89,600.00,601.87,8.29,0000 0000 0000 0000 000000
2017-02-16 10:08:49,0.48,3.64,0.00,20.89,24.45,28.12,14.74,49.77,1019.08,2039.00,2320.16,2231.59,2538.62,600.22,601.93,8.34,0000 0000 0000 0000 000000
2017-02-16 10:13:50,0.49,3.66,0.00,20.87,24.45,28.15,14.66,49.64,1019.08,2039.00,2314.35,2227.01,2533.29,600.09,601.98,8.39,0000 0000 0000 0000 000000
2017-02-16 10:18:52,0.48,3.69,0.00,20.89,24.45,28.13,14.71,49.69,1019.08,2039.00,2308.64,2222.52,2528.05,599.87,601.58,8.44,0000 0000 0000 0000 000000
2017-02-16 10:23:53,0.45,3.71,0.00,20.91,24.47,28.15,14.68,49.53,1019.13,2039.00,2303.20,2218.23,2523.05,599.90,601.71,8.49,0000 0000 0000 0000 000000
2017-02-16 10:28:54,0.46,3.73,0.00,20.89,24.47,28.18,14.69,49.50,1019.06,2038.97,2297.77,2214.01,2518.13,600.05,601.78,8.54,0000 0000 0000 0000 000000
2017-02-16 10:33:55,0.49,3.76,0.00,20.91,24.47,28.16,14.69,49.54,1019.05,2038.99,2292.02,2209.39,2512.82,600.03,601.75,8.59,0000 0000 0000 0000 000000
2017-02-16 10:38:57,0.47,3.78,0.00,20.94,24.48,28.12,14.72,49.59,1019.05,2038.98,2286.43,2205.02,2507.76,600.20,601.86,8.65,0000 0000 0000 0000 000000
2017-02-16 10:43:58,0.51,3.81,0.00,20.93,24.50,28.15,14.68,49.56,1018.92,2038.95,2280.67,2200.35,2502.38,599.78,601.37,8.70,0000 0000 0000 0000 000000
2017-02-16 10:48:59,0.48,3.83,0.00,20.95,24.50,28.14,14.69,49.47,1018.87,2038.97,2275.09,2195.93,2497.28,600.20,601.70,8.75,0000 0000 0000 0000 000000
2017-02-16 10:54:01,0.50,3.86,0.00,20.98,24.50,28.21,14.60,49.50,1018.59,2038.96,2269.30,2191.28,2492.06,600.14,601.38,8.80,0000 0000 0000 0000 000000
2017-02-16 10:59:02,0.46,3.88,0.00,20.98,24.52,28.24,14.71,49.48,1018.58,2038.91,2263.87,2187.04,2487.12,600.17,601.39,8.85,0000 0000 0000 0000 000000
2017-02-16 11:04:03,0.44,3.90,0.00,20.98,24.52,28.21,14.68,49.56,1018.58,2038.92,2258.60,2182.87,2482.37,600.33,601.61,8.90,0000 0000 0000 0000 000000
2017-02-16 11:09:04,0.45,3.93,0.00,21.00,24.53,28.23,14.75,49.76,1018.64,2038.73,2253.22,2178.69,2477.53,600.16,601.45,8.95,0000 0000 0000 0000 000000
2017-02-16 11:14:05,0.40,3.95,0.00,21.01,24.55,28.24,14.70,49.48,1018.59,2038.42,2247.93,2174.60,2472.70,599.99,601.17,9.00,0000 0000 0000 0000 000000
2017-02-16 11:19:06,0.45,3.97,0.00,21.03,24.55,28.23,14.67,49.52,1018.71,2038.15,2242.69,2170.56,2467.87,599.87,601.27,9.05,0000 0000 0000 0000 000000
2017-02-16 11:24:07,0.46,3.99,0.00,21.03,24.56,28.27,14.66,49.56,1018.97,2038.12,2237.54,2166.37,2463.00,599.65,601.02,9.10,0000 0000 0000 0000 000000
2017-02-16 11:29:09,0.46,4.02,0.00,21.03,24.57,28.29,14.71,49.45,1019.06,2038.07,2232.28,2162.23,2458.12,599.95,601.43,9.15,0000 0000 0000 0000 000000
2017-02-16 11:34:10,0.44,4.04,0.00,21.05,24.57,28.28,14.64,49.62,1019.06,2038.01,2227.09,2158.20,2453.48,599.62,600.98,9.20,0000 0000 0000 0000 000000
2017-02-16 11:39:11,0.46,4.06,0.00,21.06,24.59,28.27,14.72,49.54,1019.06,2038.03,2221.99,2154.18,2448.84,599.97,601.40,9.25,0000 0000 0000 0000 000000
2017-02-16 11:44:12,0.46,4.08,0.00,21.07,24.60,28.34,14.66,49.57,1019.05,2038.01,2216.76,2150.15,2444.13,599.83,601.21,9.30,0000 0000 0000 0000 000000
2017-02-16 11:49:13,0.44,4.11,0.00,21.09,24.61,28.32,14.71,49.62,1019.06,2038.00,2211.64,2146.16,2439.50,600.29,601.63,9.35,0000 0000 0000 0000 000000
2017-02-16 11:54:14,0.47,4.13,0.00,21.10,24.62,28.35,14.67,49.63,1019.05,2038.00,2206.49,2142.13,2434.85,599.97,601.30,9.40,0000 0000 0000 0000 000000
2017-02-16 11:59:15,0.46,4.15,0.00,21.12,24.63,28.40,14.62,49.58,1018.99,2038.00,2201.40,2138.09,2430.30,599.69,601.10,9.45,0000 0000 0000 0000 000000
2017-02-16 12:04:17,0.44,4.18,0.00,21.13,24.65,28.36,14.67,49.74,1018.76,2038.00,2196.39,2134.26,2425.77,599.93,601.06,9.50,0000 0000 0000 0000 000000
2017-02-16 12:09:18,0.44,4.20,0.00,21.15,24.65,28.41,14.70,49.77,1018.71,2038.00,2191.40,2130.39,2421.28,599.97,600.92,9.55,0000 0000 0000 0000 000000
2017-02-16 12:14:19,0.45,4.22,0.00,21.16,24.66,28.38,14.64,49.71,1018.58,2037.99,2186.39,2126.50,2416.76,599.93,600.85,9.60,0000 0000 0000 0000 000000
2017-02-16 12:19:20,0.44,4.24,0.00,21.18,24.67,28.38,14.59,49.65,1018.59,2037.98,2181.55,2122.75,2412.38,599.87,600.72,9.65,0000 0000 0000 0000 000000
2017-02-16 12:24:22,0.43,4.27,0.00,21.18,24.69,28.42,14.60,49.64,1018.59,2037.97,2176.69,2118.95,2407.97,600.04,601.08,9.70,0000 0000 0000 0000 000000
2017-02-16 12:29:23,0.45,4.29,0.00,21.19,24.70,28.46,14.67,49.75,1018.58,2037.97,2171.90,2115.15,2403.52,599.88,600.74,9.75,0000 0000 0000 0000 000000
2017-02-16 12:34:24,0.43,4.31,0.00,21.22,24.71,28.46,14.54,49.63,1018.57,2037.90,2166.98,2111.36,2399.05,599.56,600.36,9.80,0000 0000 0000 0000 000000
2017-02-16 12:39:26,0.40,4.33,0.00,21.23,24.72,28.48,14.69,49.80,1018.66,2037.74,2162.22,2107.80,2394.72,599.96,600.91,9.85,0000 0000 0000 0000 000000
2017-02-16 12:44:27,0.44,4.35,0.00,21.23,24.74,28.49,14.65,49.74,1018.67,2037.75,2157.53,2104.13,2390.49,599.95,600.84,9.90,0000 0000 0000 0000 000000
2017-02-16 12:49:28,0.42,4.37,0.00,21.27,24.75,28.51,14.56,49.77,1018.58,2037.46,2152.68,2100.35,2386.08,599.73,600.45,9.95,0000 0000 0000 0000 000000
2017-02-16 12:54:29,0.42,4.40,0.00,21.28,24.77,28.53,14.69,49.75,1018.57,2037.29,2147.91,2096.58,2381.72,600.13,600.80,10.00,0000 0000 0000 0000 000000
2017-02-16 12:59:31,0.42,4.42,0.00,21.30,24.77,28.55,14.68,49.80,1018.56,2037.09,2143.15,2092.87,2377.39,600.12,600.69,10.05,0000 0000 0000 0000 000000